Time,TemperatureF,DewpointF,PressureIn,WindDirection,WindDirectionDegrees,WindSpeedMPH,WindSpeedGustMPH,Humidity,HourlyPrecipIn,Conditions,Clouds,dailyrainin,SoftwareType,DateUTC
2013-10-28 00:04:00,55.9,53.0,29.74,ESE,111,0.0,0.0,90,0.00,,,0.00,Wunderground v.1.15,2013-10-28 07:04:00,
2013-10-28 00:10:00,55.9,53.3,29.74,ESE,111,0.0,0.0,91,0.00,,,0.00,Wunderground v.1.15,2013-10-28 07:10:00,
2013-10-28 00:15:00,55.9,53.3,29.74,ESE,111,0.0,0.0,91,0.00,,,0.00,Wunderground v.1.15,2013-10-28 07:15:00,
2013-10-28 00:21:00,55.7,52.8,29.74,North,7,2.0,2.0,90,0.00,,,0.00,Wunderground v.1.15,2013-10-28 07:21:00,
2013-10-28 00:27:00,55.6,53.0,29.74,North,7,0.0,2.0,91,0.00,,,0.00,Wunderground v.1.15,2013-10-28 07:27:00,
2013-10-28 00:32:00,55.3,53.0,29.75,North,8,1.0,1.0,92,0.00,,,0.00,Wunderground v.1.15,2013-10-28 07:32:00,
2013-10-28 00:38:00,55.0,52.7,29.75,NNW,332,0.0,1.0,92,0.00,,,0.00,Wunderground v.1.15,2013-10-28 07:38:00,
2013-10-28 00:43:00,54.7,53.0,29.75,NNW,344,0.0,1.0,94,0.00,,,0.01,Wunderground v.1.15,2013-10-28 07:43:00,
2013-10-28 00:48:00,54.5,52.8,29.74,NNW,344,0.0,1.0,94,0.00,,,0.01,Wunderground v.1.15,2013-10-28 07:48:00,
2013-10-28 00:53:00,54.4,53.0,29.74,NNW,344,0.0,0.0,95,0.00,,,0.01,Wunderground v.1.15,2013-10-28 07:53:00,
2013-10-28 00:59:00,54.2,53.1,29.74,NNW,344,0.0,0.0,96,0.00,,,0.01,Wunderground v.1.15,2013-10-28 07:59:00,
2013-10-28 01:04:00,54.1,53.0,29.74,ESE,105,0.0,0.0,96,0.00,,,0.00,Wunderground v.1.15,2013-10-28 08:04:00,
2013-10-28 01:10:00,53.9,53.1,29.74,ENE,60,0.0,0.0,97,0.00,,,0.00,Wunderground v.1.15,2013-10-28 08:10:00,
2013-10-28 01:15:00,53.9,53.1,29.74,ENE,60,0.0,0.0,97,0.00,,,0.00,Wunderground v.1.15,2013-10-28 08:15:00,
2013-10-28 01:21:00,53.8,53.2,29.73,NNE,33,0.0,2.0,98,0.00,,,0.00,Wunderground v.1.15,2013-10-28 08:21:00,
2013-10-28 01:26:00,53.8,53.2,29.73,NNE,33,0.0,2.0,98,0.00,,,0.00,Wunderground v.1.15,2013-10-28 08:26:00,
2013-10-28 01:31:00,53.9,53.3,29.73,NNE,33,0.0,0.0,98,0.00,,,0.00,Wunderground v.1.15,2013-10-28 08:31:00,
2013-10-28 01:37:00,53.9,53.6,29.73,ENE,77,1.0,1.0,99,0.00,,,0.00,Wunderground v.1.15,2013-10-28 08:37:00,
2013-10-28 01:42:00,53.9,53.6,29.73,NNE,21,0.0,0.0,99,0.00,,,0.00,Wunderground v.1.15,2013-10-28 08:42:00,
2013-10-28 01:47:00,53.9,53.6,29.73,NNE,21,0.0,0.0,99,0.00,,,0.00,Wunderground v.1.15,2013-10-28 08:47:00,
2013-10-28 01:53:00,53.9,53.6,29.73,East,89,0.0,2.0,99,0.00,,,0.00,Wunderground v.1.15,2013-10-28 08:53:00,
2013-10-28 01:58:00,53.8,53.5,29.73,NE,41,0.0,2.0,99,0.00,,,0.00,Wunderground v.1.15,2013-10-28 08:58:00,
2013-10-28 02:03:00,53.6,53.3,29.73,NE,41,0.0,0.0,99,0.00,,,0.00,Wunderground v.1.15,2013-10-28 09:03:00,
2013-10-28 02:08:00,53.6,53.6,29.73,SE,134,0.0,2.0,100,0.00,,,0.00,Wunderground v.1.15,2013-10-28 09:08:00,
2013-10-28 02:13:00,53.6,53.6,29.73,SE,134,0.0,1.0,100,0.00,,,0.00,Wunderground v.1.15,2013-10-28 09:13:00,
2013-10-28 02:18:00,53.6,53.6,29.73,SE,134,0.0,1.0,100,0.00,,,0.00,Wunderground v.1.15,2013-10-28 09:18:00,
2013-10-28 02:23:00,53.6,53.6,29.73,SE,134,0.0,2.0,100,0.00,,,0.00,Wunderground v.1.15,2013-10-28 09:23:00,
2013-10-28 02:28:00,53.6,53.6,29.73,SE,134,0.0,2.0,100,0.00,,,0.00,Wunderground v.1.15,2013-10-28 09:28:00,
2013-10-28 02:33:00,53.6,53.6,29.73,SE,134,0.0,1.0,100,0.00,,,0.00,Wunderground v.1.15,2013-10-28 09:33:00,
2013-10-28 02:38:00,53.6,53.6,29.73,SE,134,0.0,1.0,100,0.00,,,0.00,Wunderground v.1.15,2013-10-28 09:38:00,
2013-10-28 02:43:00,53.6,53.6,29.73,North,349,0.0,1.0,100,0.00,,,0.00,Wunderground v.1.15,2013-10-28 09:43:00,
2013-10-28 02:48:00,53.6,53.6,29.73,North,349,0.0,1.0,100,0.00,,,0.00,Wunderground v.1.15,2013-10-28 09:48:00,
2013-10-28 02:53:00,53.6,53.6,29.73,North,356,0.0,3.0,100,0.00,,,0.00,Wunderground v.1.15,2013-10-28 09:53:00,
2013-10-28 02:58:00,53.6,53.6,29.73,North,358,0.0,3.0,100,0.00,,,0.00,Wunderground v.1.15,2013-10-28 09:58:00,
2013-10-28 03:03:00,53.5,53.5,29.72,East,81,0.0,3.0,100,0.00,,,0.00,Wunderground v.1.15,2013-10-28 10:03:00,
2013-10-28 03:08:00,53.3,53.3,29.72,SE,129,0.0,6.0,100,0.00,,,0.00,Wunderground v.1.15,2013-10-28 10:08:00,
2013-10-28 03:13:00,53.2,53.2,29.72,SE,129,0.0,2.0,100,0.00,,,0.00,Wunderground v.1.15,2013-10-28 10:13:00,
2013-10-28 03:18:00,52.9,52.9,29.72,SE,129,0.0,2.0,100,0.00,,,0.00,Wunderground v.1.15,2013-10-28 10:18:00,
2013-10-28 03:23:00,52.8,52.5,29.72,WNW,291,0.0,1.0,99,0.00,,,0.00,Wunderground v.1.15,2013-10-28 10:23:00,
2013-10-28 03:28:00,52.5,52.2,29.72,SSE,160,0.0,3.0,99,0.00,,,0.00,Wunderground v.1.15,2013-10-28 10:28:00,
2013-10-28 03:33:00,52.2,51.9,29.72,SSE,160,0.0,0.0,99,0.00,,,0.00,Wunderground v.1.15,2013-10-28 10:33:00,
2013-10-28 03:38:00,52.0,51.7,29.72,SSE,160,0.0,1.0,99,0.00,,,0.00,Wunderground v.1.15,2013-10-28 10:38:00,
2013-10-28 03:43:00,51.9,51.6,29.72,SSE,160,0.0,0.0,99,0.00,,,0.00,Wunderground v.1.15,2013-10-28 10:43:00,
2013-10-28 03:48:00,51.6,51.3,29.72,SSE,160,0.0,0.0,99,0.00,,,0.00,Wunderground v.1.15,2013-10-28 10:48:00,
2013-10-28 03:53:00,51.3,51.0,29.72,SSE,160,0.0,0.0,99,0.00,,,0.00,Wunderground v.1.15,2013-10-28 10:53:00,
2013-10-28 03:58:00,51.0,50.7,29.72,SSE,160,0.0,0.0,99,0.00,,,0.00,Wunderground v.1.15,2013-10-28 10:58:00,
2013-10-28 04:03:00,51.4,51.4,29.72,NE,34,3.0,6.0,100,0.00,,,0.00,Wunderground v.1.15,2013-10-28 11:03:00,
2013-10-28 04:08:00,51.7,51.7,29.72,ESE,120,0.0,6.0,100,0.00,,,0.00,Wunderground v.1.15,2013-10-28 11:08:00,
2013-10-28 04:13:00,51.4,51.1,29.72,North,1,1.0,3.0,99,0.00,,,0.00,Wunderground v.1.15,2013-10-28 11:13:00,
2013-10-28 04:18:00,51.0,50.5,29.70,NNE,16,0.0,3.0,98,0.00,,,0.00,Wunderground v.1.15,2013-10-28 11:18:00,
2013-10-28 04:23:00,50.8,50.3,29.70,NNE,16,0.0,0.0,98,0.00,,,0.00,Wunderground v.1.15,2013-10-28 11:23:00,
2013-10-28 04:28:00,50.5,50.0,29.70,NNE,16,0.0,0.0,98,0.00,,,0.00,Wunderground v.1.15,2013-10-28 11:28:00,
2013-10-28 04:33:00,50.2,49.7,29.70,NNE,16,0.0,0.0,98,0.00,,,0.00,Wunderground v.1.15,2013-10-28 11:33:00,
2013-10-28 04:38:00,49.9,49.4,29.70,NNE,16,0.0,0.0,98,0.00,,,0.00,Wunderground v.1.15,2013-10-28 11:38:00,
2013-10-28 04:43:00,49.8,49.3,29.70,NNE,16,0.0,0.0,98,0.00,,,0.00,Wunderground v.1.15,2013-10-28 11:43:00,
2013-10-28 04:48:00,49.8,49.3,29.70,NNE,16,0.0,0.0,98,0.00,,,0.00,Wunderground v.1.15,2013-10-28 11:48:00,
2013-10-28 04:53:00,49.6,49.3,29.70,NNE,16,0.0,0.0,99,0.00,,,0.00,Wunderground v.1.15,2013-10-28 11:53:00,
2013-10-28 04:58:00,49.6,49.3,29.70,NNE,16,0.0,1.0,99,0.00,,,0.00,Wunderground v.1.15,2013-10-28 11:58:00,
2013-10-28 05:03:00,49.6,49.3,29.70,NNE,16,0.0,0.0,99,0.00,,,0.00,Wunderground v.1.15,2013-10-28 12:03:00,
2013-10-28 05:08:00,49.8,49.5,29.70,NNE,16,0.0,0.0,99,0.00,,,0.00,Wunderground v.1.15,2013-10-28 12:08:00,
2013-10-28 05:13:00,49.9,49.9,29.70,NNE,16,0.0,0.0,100,0.00,,,0.00,Wunderground v.1.15,2013-10-28 12:13:00,
2013-10-28 05:18:00,50.1,50.1,29.70,NNE,16,0.0,0.0,100,0.00,,,0.00,Wunderground v.1.15,2013-10-28 12:18:00,
2013-10-28 05:23:00,50.4,50.4,29.70,NNE,16,0.0,1.0,100,0.00,,,0.01,Wunderground v.1.15,2013-10-28 12:23:00,
2013-10-28 05:28:00,50.7,50.7,29.70,NE,39,0.0,3.0,100,0.21,,,0.02,Wunderground v.1.15,2013-10-28 12:28:00,
2013-10-28 05:33:00,51.0,51.0,29.71,NE,39,0.0,0.0,100,0.08,,,0.02,Wunderground v.1.15,2013-10-28 12:33:00,
2013-10-28 05:38:00,51.0,51.0,29.71,NE,39,0.0,0.0,100,0.05,,,0.02,Wunderground v.1.15,2013-10-28 12:38:00,
2013-10-28 05:43:00,51.0,51.0,29.71,NE,39,0.0,0.0,100,0.00,,,0.02,Wunderground v.1.15,2013-10-28 12:43:00,
2013-10-28 05:48:00,51.0,51.0,29.70,NE,39,0.0,1.0,100,0.00,,,0.02,Wunderground v.1.15,2013-10-28 12:48:00,
2013-10-28 05:53:00,51.0,51.0,29.70,NNE,20,0.0,3.0,100,0.00,,,0.02,Wunderground v.1.15,2013-10-28 12:53:00,
2013-10-28 05:58:00,50.8,50.8,29.70,NNE,18,2.0,3.0,100,0.00,,,0.02,Wunderground v.1.15,2013-10-28 12:58:00,
2013-10-28 06:03:00,50.8,50.8,29.70,SW,235,0.0,3.0,100,0.00,,,0.02,Wunderground v.1.15,2013-10-28 13:03:00,
2013-10-28 06:08:00,50.5,50.5,29.70,SW,235,0.0,3.0,100,0.00,,,0.02,Wunderground v.1.15,2013-10-28 13:08:00,
2013-10-28 06:13:00,50.4,50.4,29.70,SW,235,0.0,0.0,100,0.00,,,0.02,Wunderground v.1.15,2013-10-28 13:13:00,
2013-10-28 06:18:00,50.1,50.1,29.70,SW,235,0.0,0.0,100,0.00,,,0.02,Wunderground v.1.15,2013-10-28 13:18:00,
2013-10-28 06:23:00,49.9,49.9,29.70,SW,235,0.0,0.0,100,0.00,,,0.02,Wunderground v.1.15,2013-10-28 13:23:00,
2013-10-28 06:28:00,49.8,49.8,29.70,SW,235,0.0,0.0,100,0.00,,,0.02,Wunderground v.1.15,2013-10-28 13:28:00,
2013-10-28 06:33:00,49.8,49.8,29.70,SW,235,1.0,1.0,100,0.00,,,0.02,Wunderground v.1.15,2013-10-28 13:33:00,
2013-10-28 06:38:00,49.9,49.9,29.70,East,91,0.0,2.0,100,0.00,,,0.02,Wunderground v.1.15,2013-10-28 13:38:00,
2013-10-28 06:43:00,50.2,50.2,29.70,North,350,2.0,3.0,100,0.00,,,0.02,Wunderground v.1.15,2013-10-28 13:43:00,
2013-10-28 06:48:00,50.4,50.4,29.70,NW,305,0.0,3.0,100,0.00,,,0.02,Wunderground v.1.15,2013-10-28 13:48:00,
2013-10-28 06:53:00,50.4,50.4,29.70,ENE,75,0.0,2.0,100,0.00,,,0.02,Wunderground v.1.15,2013-10-28 13:53:00,
2013-10-28 06:59:00,50.4,50.4,29.70,SSE,151,0.0,2.0,100,0.00,,,0.02,Wunderground v.1.15,2013-10-28 13:59:00,
2013-10-28 07:04:00,50.4,50.4,29.70,SE,136,0.0,4.0,100,0.00,,,0.02,Wunderground v.1.15,2013-10-28 14:04:00,
2013-10-28 07:09:00,50.5,50.5,29.70,SE,136,0.0,4.0,100,0.00,,,0.02,Wunderground v.1.15,2013-10-28 14:09:00,
2013-10-28 07:14:00,50.5,50.5,29.70,SE,136,0.0,1.0,100,0.00,,,0.02,Wunderground v.1.15,2013-10-28 14:14:00,
2013-10-28 07:19:00,50.4,50.4,29.70,SE,136,0.0,1.0,100,0.00,,,0.02,Wunderground v.1.15,2013-10-28 14:19:00,
2013-10-28 07:24:00,50.5,50.5,29.70,SE,136,0.0,0.0,100,0.00,,,0.02,Wunderground v.1.15,2013-10-28 14:24:00,
2013-10-28 07:29:00,50.4,50.4,29.70,SE,136,0.0,0.0,100,0.00,,,0.02,Wunderground v.1.15,2013-10-28 14:29:00,
2013-10-28 07:34:00,50.4,50.4,29.70,SE,136,0.0,0.0,100,0.00,,,0.02,Wunderground v.1.15,2013-10-28 14:34:00,
2013-10-28 07:39:00,50.4,50.4,29.70,SE,136,0.0,0.0,100,0.00,,,0.02,Wunderground v.1.15,2013-10-28 14:39:00,
2013-10-28 07:44:00,50.4,50.4,29.70,SE,136,0.0,0.0,100,0.00,,,0.02,Wunderground v.1.15,2013-10-28 14:44:00,
2013-10-28 07:49:00,50.4,50.4,29.70,SE,136,0.0,0.0,100,0.00,,,0.02,Wunderground v.1.15,2013-10-28 14:49:00,
2013-10-28 07:54:00,50.4,50.4,29.70,SE,136,0.0,0.0,100,0.00,,,0.02,Wunderground v.1.15,2013-10-28 14:54:00,
2013-10-28 07:59:00,50.5,50.5,29.70,SE,136,0.0,0.0,100,0.00,,,0.02,Wunderground v.1.15,2013-10-28 14:59:00,
2013-10-28 08:04:00,50.8,50.8,29.71,SE,136,0.0,0.0,100,0.00,,,0.02,Wunderground v.1.15,2013-10-28 15:04:00,
2013-10-28 08:09:00,51.0,51.0,29.71,SE,136,0.0,0.0,100,0.00,,,0.02,Wunderground v.1.15,2013-10-28 15:09:00,
2013-10-28 08:14:00,51.1,51.1,29.71,SE,136,0.0,0.0,100,0.00,,,0.02,Wunderground v.1.15,2013-10-28 15:14:00,
2013-10-28 08:19:00,51.3,51.3,29.72,SE,136,0.0,0.0,100,0.00,,,0.02,Wunderground v.1.15,2013-10-28 15:19:00,
2013-10-28 08:24:00,51.4,51.4,29.72,SE,136,0.0,0.0,100,0.00,,,0.02,Wunderground v.1.15,2013-10-28 15:24:00,
2013-10-28 08:29:00,51.6,51.6,29.72,SE,136,0.0,0.0,100,0.00,,,0.02,Wunderground v.1.15,2013-10-28 15:29:00,
2013-10-28 08:34:00,51.7,51.7,29.72,SE,136,0.0,0.0,100,0.00,,,0.02,Wunderground v.1.15,2013-10-28 15:34:00,
2013-10-28 08:39:00,51.7,51.7,29.72,SE,136,0.0,0.0,100,0.00,,,0.02,Wunderground v.1.15,2013-10-28 15:39:00,
2013-10-28 08:44:00,52.0,52.0,29.72,SE,136,0.0,0.0,100,0.00,,,0.02,Wunderground v.1.15,2013-10-28 15:44:00,
2013-10-28 08:49:00,52.2,52.2,29.72,SE,136,0.0,0.0,100,0.00,,,0.02,Wunderground v.1.15,2013-10-28 15:49:00,
2013-10-28 08:54:00,52.3,52.3,29.72,SE,136,0.0,1.0,100,0.00,,,0.02,Wunderground v.1.15,2013-10-28 15:54:00,
2013-10-28 08:59:00,52.6,52.6,29.72,SE,134,0.0,2.0,100,0.00,,,0.02,Wunderground v.1.15,2013-10-28 15:59:00,
2013-10-28 09:04:00,52.9,52.9,29.72,SE,134,0.0,1.0,100,0.00,,,0.02,Wunderground v.1.15,2013-10-28 16:04:00,
2013-10-28 09:09:00,53.1,53.1,29.72,NE,37,0.0,3.0,100,0.00,,,0.02,Wunderground v.1.15,2013-10-28 16:09:00,
2013-10-28 09:14:00,53.1,53.1,29.72,ENE,72,0.0,3.0,100,0.00,,,0.02,Wunderground v.1.15,2013-10-28 16:14:00,
2013-10-28 09:19:00,53.2,53.2,29.72,ENE,67,0.0,3.0,100,0.00,,,0.02,Wunderground v.1.15,2013-10-28 16:19:00,
2013-10-28 09:24:00,53.2,53.2,29.72,NE,47,1.0,3.0,100,0.00,,,0.02,Wunderground v.1.15,2013-10-28 16:24:00,
2013-10-28 09:29:00,53.6,53.6,29.72,NNE,27,0.0,3.0,100,0.00,,,0.02,Wunderground v.1.15,2013-10-28 16:29:00,
2013-10-28 09:34:00,54.4,54.4,29.73,ENE,58,0.0,3.0,100,0.00,,,0.02,Wunderground v.1.15,2013-10-28 16:34:00,
2013-10-28 09:39:00,55.0,55.0,29.73,NNE,33,1.0,3.0,100,0.00,,,0.02,Wunderground v.1.15,2013-10-28 16:39:00,
2013-10-28 09:44:00,55.3,55.3,29.73,North,0,0.0,5.0,100,0.00,,,0.02,Wunderground v.1.15,2013-10-28 16:44:00,
2013-10-28 09:49:00,55.0,55.0,29.73,ENE,63,4.0,5.0,100,0.00,,,0.02,Wunderground v.1.15,2013-10-28 16:49:00,
2013-10-28 09:54:00,55.0,55.0,29.73,NE,34,2.0,4.0,100,0.00,,,0.02,Wunderground v.1.15,2013-10-28 16:54:00,
2013-10-28 09:59:00,55.3,55.3,29.73,NE,43,1.0,4.0,100,0.00,,,0.02,Wunderground v.1.15,2013-10-28 16:59:00,
2013-10-28 10:04:00,55.1,54.8,29.73,ENE,65,0.0,6.0,99,0.00,,,0.02,Wunderground v.1.15,2013-10-28 17:04:00,
2013-10-28 10:09:00,55.0,54.4,29.73,North,6,3.0,6.0,98,0.00,,,0.02,Wunderground v.1.15,2013-10-28 17:09:00,
2013-10-28 10:14:00,55.1,54.3,29.73,NNE,28,3.0,3.0,97,0.00,,,0.02,Wunderground v.1.15,2013-10-28 17:14:00,
2013-10-28 10:19:00,55.3,54.2,29.74,ESE,112,0.0,4.0,96,0.00,,,0.02,Wunderground v.1.15,2013-10-28 17:19:00,
2013-10-28 10:24:00,55.6,54.5,29.74,NNE,30,2.0,4.0,96,0.00,,,0.02,Wunderground v.1.15,2013-10-28 17:24:00,
2013-10-28 10:29:00,56.0,54.3,29.74,North,9,2.0,4.0,94,0.00,,,0.02,Wunderground v.1.15,2013-10-28 17:29:00,
2013-10-28 10:34:00,56.2,54.2,29.74,ENE,69,0.0,4.0,93,0.00,,,0.02,Wunderground v.1.15,2013-10-28 17:34:00,
2013-10-28 10:39:00,56.2,53.9,29.74,East,83,0.0,4.0,92,0.00,,,0.02,Wunderground v.1.15,2013-10-28 17:39:00,
2013-10-28 10:44:00,56.3,54.0,29.74,NNE,13,0.0,5.0,92,0.00,,,0.02,Wunderground v.1.15,2013-10-28 17:44:00,
2013-10-28 10:49:00,56.6,54.3,29.73,North,357,3.0,6.0,92,0.00,,,0.02,Wunderground v.1.15,2013-10-28 17:49:00,
2013-10-28 10:54:00,57.0,54.4,29.73,NE,34,3.0,4.0,91,0.00,,,0.02,Wunderground v.1.15,2013-10-28 17:54:00,
2013-10-28 10:59:00,57.3,54.4,29.73,ENE,73,0.0,4.0,90,0.00,,,0.02,Wunderground v.1.15,2013-10-28 17:59:00,
2013-10-28 11:04:00,57.5,54.6,29.74,North,4,2.0,4.0,90,0.00,,,0.02,Wunderground v.1.15,2013-10-28 18:04:00,
2013-10-28 11:09:00,57.2,54.3,29.74,NNE,29,1.0,5.0,90,0.00,,,0.02,Wunderground v.1.15,2013-10-28 18:09:00,
2013-10-28 11:14:00,56.6,53.7,29.74,NNE,16,2.0,8.0,90,0.00,,,0.02,Wunderground v.1.15,2013-10-28 18:14:00,
2013-10-28 11:19:00,56.5,53.9,29.74,NE,44,0.0,8.0,91,0.00,,,0.02,Wunderground v.1.15,2013-10-28 18:19:00,
2013-10-28 11:24:00,56.6,54.0,29.74,NNE,25,3.0,7.0,91,0.00,,,0.02,Wunderground v.1.15,2013-10-28 18:24:00,
2013-10-28 11:29:00,56.7,54.1,29.74,NE,37,0.0,7.0,91,0.00,,,0.02,Wunderground v.1.15,2013-10-28 18:29:00,
2013-10-28 11:34:00,56.7,53.8,29.75,ESE,105,0.0,5.0,90,0.00,,,0.02,Wunderground v.1.15,2013-10-28 18:34:00,
2013-10-28 11:39:00,57.2,54.0,29.75,ESE,105,2.0,5.0,89,0.00,,,0.02,Wunderground v.1.15,2013-10-28 18:39:00,
2013-10-28 11:44:00,57.8,54.3,29.75,NNW,344,5.0,6.0,88,0.00,,,0.02,Wunderground v.1.15,2013-10-28 18:44:00,
2013-10-28 11:49:00,58.1,54.2,29.75,East,95,2.0,6.0,87,0.00,,,0.02,Wunderground v.1.15,2013-10-28 18:49:00,
2013-10-28 11:54:00,58.7,54.5,29.75,ENE,59,1.0,7.0,86,0.00,,,0.02,Wunderground v.1.15,2013-10-28 18:54:00,
2013-10-28 11:59:00,59.3,55.1,29.75,East,100,1.0,7.0,86,0.00,,,0.02,Wunderground v.1.15,2013-10-28 18:59:00,
2013-10-28 12:04:00,59.3,54.5,29.74,SSE,162,1.0,5.0,84,0.00,,,0.02,Wunderground v.1.15,2013-10-28 19:04:00,
2013-10-28 12:09:00,59.0,54.2,29.74,ENE,60,3.0,5.0,84,0.00,,,0.02,Wunderground v.1.15,2013-10-28 19:09:00,
2013-10-28 12:14:00,59.0,54.8,29.74,ENE,58,1.0,4.0,86,0.00,,,0.02,Wunderground v.1.15,2013-10-28 19:14:00,
2013-10-28 12:19:00,59.2,54.4,29.74,NNW,342,2.0,4.0,84,0.00,,,0.02,Wunderground v.1.15,2013-10-28 19:19:00,
2013-10-28 12:24:00,59.3,54.8,29.74,NE,54,2.0,5.0,85,0.00,,,0.02,Wunderground v.1.15,2013-10-28 19:24:00,
2013-10-28 12:29:00,59.3,54.5,29.74,North,1,0.0,6.0,84,0.00,,,0.02,Wunderground v.1.15,2013-10-28 19:29:00,
2013-10-28 12:34:00,59.5,54.3,29.74,WNW,283,2.0,4.0,83,0.00,,,0.02,Wunderground v.1.15,2013-10-28 19:34:00,
2013-10-28 12:39:00,58.9,54.1,29.74,North,357,5.0,6.0,84,0.00,,,0.02,Wunderground v.1.15,2013-10-28 19:39:00,
2013-10-28 12:44:00,57.5,52.7,29.74,NNE,16,4.0,7.0,84,0.41,,,0.04,Wunderground v.1.15,2013-10-28 19:44:00,
2013-10-28 12:49:00,55.9,52.4,29.75,SSE,165,0.0,7.0,88,0.17,,,0.06,Wunderground v.1.15,2013-10-28 19:49:00,
2013-10-28 12:54:00,55.1,52.8,29.75,SSE,152,0.0,3.0,92,0.07,,,0.06,Wunderground v.1.15,2013-10-28 19:54:00,
2013-10-28 12:59:00,54.5,52.5,29.75,South,179,0.0,3.0,93,0.04,,,0.06,Wunderground v.1.15,2013-10-28 19:59:00,
2013-10-28 13:04:00,54.5,53.1,29.74,ESE,107,0.0,3.0,95,0.00,,,0.06,Wunderground v.1.15,2013-10-28 20:04:00,
2013-10-28 13:09:00,54.7,53.6,29.74,ESE,107,0.0,3.0,96,0.00,,,0.06,Wunderground v.1.15,2013-10-28 20:09:00,
2013-10-28 13:14:00,55.1,54.0,29.74,SSW,207,0.0,3.0,96,0.00,,,0.06,Wunderground v.1.15,2013-10-28 20:14:00,
2013-10-28 13:19:00,55.4,54.3,29.73,SSW,196,1.0,1.0,96,0.00,,,0.06,Wunderground v.1.15,2013-10-28 20:19:00,
2013-10-28 13:24:00,55.9,55.1,29.73,SSE,156,1.0,3.0,97,0.00,,,0.06,Wunderground v.1.15,2013-10-28 20:24:00,
2013-10-28 13:29:00,56.0,54.9,29.73,NNW,336,0.0,1.0,96,0.00,,,0.06,Wunderground v.1.15,2013-10-28 20:29:00,
2013-10-28 13:34:00,56.0,54.9,29.73,NNE,18,0.0,4.0,96,0.00,,,0.06,Wunderground v.1.15,2013-10-28 20:34:00,
2013-10-28 13:40:00,56.0,54.9,29.73,SW,224,0.0,1.0,96,0.00,,,0.06,Wunderground v.1.15,2013-10-28 20:40:00,
2013-10-28 13:45:00,55.9,54.5,29.73,East,96,4.0,4.0,95,0.00,,,0.06,Wunderground v.1.15,2013-10-28 20:45:00,
2013-10-28 13:50:00,55.4,54.0,29.73,ESE,115,2.0,4.0,95,0.00,,,0.06,Wunderground v.1.15,2013-10-28 20:50:00,
2013-10-28 13:55:00,55.4,54.3,29.73,NNW,338,4.0,4.0,96,0.00,,,0.06,Wunderground v.1.15,2013-10-28 20:55:00,
2013-10-28 14:00:00,55.1,54.0,29.73,North,0,2.0,2.0,96,0.00,,,0.06,Wunderground v.1.15,2013-10-28 21:00:00,
2013-10-28 14:05:00,54.7,53.3,29.72,North,0,0.0,3.0,95,0.00,,,0.06,Wunderground v.1.15,2013-10-28 21:05:00,
2013-10-28 14:10:00,54.7,53.3,29.72,North,0,0.0,1.0,95,0.00,,,0.06,Wunderground v.1.15,2013-10-28 21:10:00,
2013-10-28 14:15:00,54.7,53.3,29.72,ESE,117,0.0,3.0,95,0.00,,,0.06,Wunderground v.1.15,2013-10-28 21:15:00,
2013-10-28 14:20:00,54.5,53.1,29.72,ESE,116,0.0,0.0,95,0.00,,,0.06,Wunderground v.1.15,2013-10-28 21:20:00,
2013-10-28 14:25:00,54.7,53.3,29.72,ESE,115,0.0,1.0,95,0.00,,,0.06,Wunderground v.1.15,2013-10-28 21:25:00,
2013-10-28 14:30:00,54.5,53.1,29.72,NE,36,0.0,0.0,95,0.00,,,0.06,Wunderground v.1.15,2013-10-28 21:30:00,
2013-10-28 14:35:00,54.5,53.1,29.73,NE,44,0.0,0.0,95,0.00,,,0.06,Wunderground v.1.15,2013-10-28 21:35:00,
2013-10-28 14:40:00,54.4,53.3,29.73,NE,44,0.0,0.0,96,0.00,,,0.06,Wunderground v.1.15,2013-10-28 21:40:00,
2013-10-28 14:45:00,54.2,53.1,29.73,NNW,347,0.0,4.0,96,0.00,,,0.06,Wunderground v.1.15,2013-10-28 21:45:00,
2013-10-28 14:50:00,54.2,53.1,29.73,NNW,347,1.0,1.0,96,0.00,,,0.06,Wunderground v.1.15,2013-10-28 21:50:00,
2013-10-28 14:55:00,54.2,53.4,29.73,SE,124,0.0,2.0,97,0.00,,,0.06,Wunderground v.1.15,2013-10-28 21:55:00,
2013-10-28 15:00:00,54.4,53.8,29.73,North,352,1.0,2.0,98,0.00,,,0.06,Wunderground v.1.15,2013-10-28 22:00:00,
2013-10-28 15:05:00,54.4,53.8,29.73,North,352,1.0,4.0,98,0.00,,,0.06,Wunderground v.1.15,2013-10-28 22:05:00,
2013-10-28 15:10:00,54.4,53.8,29.73,ENE,58,1.0,1.0,98,0.00,,,0.06,Wunderground v.1.15,2013-10-28 22:10:00,
2013-10-28 15:15:00,54.4,53.8,29.73,NNE,21,0.0,2.0,98,0.00,,,0.06,Wunderground v.1.15,2013-10-28 22:15:00,
2013-10-28 15:20:00,54.7,54.1,29.73,East,99,0.0,0.0,98,0.00,,,0.06,Wunderground v.1.15,2013-10-28 22:20:00,
2013-10-28 15:25:00,54.4,53.6,29.73,ESE,122,0.0,2.0,97,0.00,,,0.06,Wunderground v.1.15,2013-10-28 22:25:00,
2013-10-28 15:30:00,54.1,53.5,29.73,NNW,336,0.0,3.0,98,0.00,,,0.06,Wunderground v.1.15,2013-10-28 22:30:00,
2013-10-28 15:35:00,53.9,53.3,29.74,NW,304,0.0,3.0,98,0.00,,,0.06,Wunderground v.1.15,2013-10-28 22:35:00,
2013-10-28 15:40:00,54.1,53.5,29.74,North,6,0.0,1.0,98,0.00,,,0.06,Wunderground v.1.15,2013-10-28 22:40:00,
2013-10-28 15:45:00,54.1,53.5,29.74,North,6,0.0,1.0,98,0.00,,,0.06,Wunderground v.1.15,2013-10-28 22:45:00,
2013-10-28 15:50:00,54.2,53.6,29.74,WSW,258,0.0,0.0,98,0.00,,,0.06,Wunderground v.1.15,2013-10-28 22:50:00,
2013-10-28 15:55:00,54.2,53.6,29.74,SE,126,0.0,2.0,98,0.00,,,0.06,Wunderground v.1.15,2013-10-28 22:55:00,
2013-10-28 16:00:00,54.1,53.5,29.74,SE,143,0.0,0.0,98,0.00,,,0.06,Wunderground v.1.15,2013-10-28 23:00:00,
2013-10-28 16:05:00,54.2,53.6,29.74,SE,143,0.0,1.0,98,0.00,,,0.06,Wunderground v.1.15,2013-10-28 23:05:00,
2013-10-28 16:10:00,54.2,53.6,29.74,North,354,0.0,0.0,98,0.00,,,0.06,Wunderground v.1.15,2013-10-28 23:10:00,
2013-10-28 16:15:00,54.2,53.4,29.75,North,354,0.0,1.0,97,0.00,,,0.06,Wunderground v.1.15,2013-10-28 23:15:00,
2013-10-28 16:20:00,53.9,53.1,29.75,North,354,0.0,0.0,97,0.00,,,0.06,Wunderground v.1.15,2013-10-28 23:20:00,
2013-10-28 16:25:00,53.9,53.3,29.75,NNE,13,0.0,2.0,98,0.00,,,0.06,Wunderground v.1.15,2013-10-28 23:25:00,
2013-10-28 16:30:00,53.9,53.3,29.75,NNE,13,0.0,0.0,98,0.00,,,0.06,Wunderground v.1.15,2013-10-28 23:30:00,
2013-10-28 16:35:00,53.9,53.3,29.75,NNE,13,0.0,1.0,98,0.00,,,0.06,Wunderground v.1.15,2013-10-28 23:35:00,
2013-10-28 16:40:00,54.1,53.5,29.75,NNE,13,0.0,0.0,98,0.00,,,0.06,Wunderground v.1.15,2013-10-28 23:40:00,
2013-10-28 16:45:00,54.2,53.6,29.75,NNE,13,0.0,0.0,98,0.00,,,0.06,Wunderground v.1.15,2013-10-28 23:45:00,
2013-10-28 16:50:00,54.4,53.8,29.75,NNE,13,0.0,2.0,98,0.00,,,0.06,Wunderground v.1.15,2013-10-28 23:50:00,
2013-10-28 16:55:00,54.4,53.8,29.75,NNE,13,0.0,2.0,98,0.00,,,0.06,Wunderground v.1.15,2013-10-28 23:55:00,
2013-10-28 17:00:00,54.4,53.8,29.75,SSE,153,0.0,3.0,98,0.00,,,0.06,Wunderground v.1.15,2013-10-29 00:00:00,
2013-10-28 17:05:00,54.4,53.8,29.75,SSE,153,0.0,3.0,98,0.00,,,0.06,Wunderground v.1.15,2013-10-29 00:05:00,
2013-10-28 17:10:00,54.4,53.8,29.75,SSE,153,0.0,0.0,98,0.00,,,0.06,Wunderground v.1.15,2013-10-29 00:10:00,
2013-10-28 17:15:00,54.5,53.9,29.75,SSE,153,0.0,0.0,98,0.00,,,0.06,Wunderground v.1.15,2013-10-29 00:15:00,
2013-10-28 17:20:00,54.5,53.9,29.75,SSE,153,0.0,0.0,98,0.00,,,0.06,Wunderground v.1.15,2013-10-29 00:20:00,
2013-10-28 17:25:00,54.5,53.9,29.75,SSE,153,0.0,0.0,98,0.00,,,0.06,Wunderground v.1.15,2013-10-29 00:25:00,
2013-10-28 17:30:00,54.4,53.8,29.75,SSE,153,0.0,0.0,98,0.00,,,0.06,Wunderground v.1.15,2013-10-29 00:30:00,
2013-10-28 17:35:00,54.4,53.8,29.75,SSE,153,0.0,1.0,98,0.00,,,0.06,Wunderground v.1.15,2013-10-29 00:35:00,
2013-10-28 17:40:00,54.5,53.9,29.75,SSE,153,0.0,0.0,98,0.00,,,0.06,Wunderground v.1.15,2013-10-29 00:40:00,
2013-10-28 17:45:00,54.5,53.9,29.75,SSE,153,0.0,0.0,98,0.00,,,0.06,Wunderground v.1.15,2013-10-29 00:45:00,
2013-10-28 17:50:00,54.5,53.9,29.75,SSE,153,0.0,0.0,98,0.00,,,0.06,Wunderground v.1.15,2013-10-29 00:50:00,
2013-10-28 17:55:00,54.5,53.9,29.75,SSE,153,0.0,0.0,98,0.00,,,0.06,Wunderground v.1.15,2013-10-29 00:55:00,
2013-10-28 18:00:00,54.4,53.8,29.75,SSE,153,0.0,0.0,98,0.00,,,0.06,Wunderground v.1.15,2013-10-29 01:00:00,
2013-10-28 18:05:00,54.4,53.8,29.75,SSE,153,0.0,0.0,98,0.00,,,0.06,Wunderground v.1.15,2013-10-29 01:05:00,
2013-10-28 18:10:00,54.4,53.8,29.75,SSE,153,0.0,0.0,98,0.00,,,0.07,Wunderground v.1.15,2013-10-29 01:10:00,
2013-10-28 18:15:00,54.2,53.6,29.75,SSE,153,0.0,0.0,98,0.00,,,0.07,Wunderground v.1.15,2013-10-29 01:15:00,
2013-10-28 18:21:00,54.1,53.8,29.75,SSE,153,0.0,0.0,99,0.00,,,0.07,Wunderground v.1.15,2013-10-29 01:21:00,
2013-10-28 18:26:00,53.9,53.6,29.75,SSE,153,0.0,0.0,99,0.00,,,0.07,Wunderground v.1.15,2013-10-29 01:26:00,
2013-10-28 18:31:00,53.9,53.6,29.76,SSE,153,0.0,0.0,99,0.00,,,0.07,Wunderground v.1.15,2013-10-29 01:31:00,
2013-10-28 18:36:00,53.8,53.5,29.76,SSE,153,0.0,0.0,99,0.00,,,0.07,Wunderground v.1.15,2013-10-29 01:36:00,
2013-10-28 18:41:00,53.8,53.5,29.76,SSE,153,0.0,0.0,99,0.00,,,0.07,Wunderground v.1.15,2013-10-29 01:41:00,
2013-10-28 18:46:00,53.8,53.5,29.76,SSE,153,0.0,0.0,99,0.00,,,0.07,Wunderground v.1.15,2013-10-29 01:46:00,
2013-10-28 18:51:00,53.8,53.8,29.76,SSE,153,0.0,0.0,100,0.00,,,0.07,Wunderground v.1.15,2013-10-29 01:51:00,
2013-10-28 18:56:00,53.6,53.6,29.76,SSE,153,0.0,0.0,100,0.00,,,0.07,Wunderground v.1.15,2013-10-29 01:56:00,
2013-10-28 19:01:00,53.6,53.6,29.76,SSE,153,0.0,0.0,100,0.00,,,0.07,Wunderground v.1.15,2013-10-29 02:01:00,
2013-10-28 19:06:00,53.6,53.6,29.76,SSE,153,0.0,0.0,100,0.00,,,0.07,Wunderground v.1.15,2013-10-29 02:06:00,
2013-10-28 19:11:00,53.6,53.6,29.76,SSE,153,0.0,0.0,100,0.00,,,0.07,Wunderground v.1.15,2013-10-29 02:11:00,
2013-10-28 19:16:00,53.6,53.6,29.77,SSE,153,0.0,0.0,100,0.00,,,0.07,Wunderground v.1.15,2013-10-29 02:16:00,
2013-10-28 19:21:00,53.6,53.6,29.77,SSE,153,0.0,0.0,100,0.00,,,0.07,Wunderground v.1.15,2013-10-29 02:21:00,
2013-10-28 19:26:00,53.8,53.8,29.77,SSE,153,1.0,1.0,100,0.00,,,0.07,Wunderground v.1.15,2013-10-29 02:26:00,
2013-10-28 19:31:00,53.8,53.8,29.77,SSE,153,0.0,0.0,100,0.00,,,0.07,Wunderground v.1.15,2013-10-29 02:31:00,
2013-10-28 19:36:00,53.6,53.6,29.77,SSE,153,0.0,0.0,100,0.00,,,0.07,Wunderground v.1.15,2013-10-29 02:36:00,
2013-10-28 19:41:00,53.5,53.5,29.77,SSE,153,0.0,0.0,100,0.00,,,0.07,Wunderground v.1.15,2013-10-29 02:41:00,
2013-10-28 19:46:00,53.3,53.3,29.77,SSE,153,0.0,0.0,100,0.00,,,0.07,Wunderground v.1.15,2013-10-29 02:46:00,
2013-10-28 19:51:00,53.2,53.2,29.77,SSE,153,0.0,0.0,100,0.00,,,0.07,Wunderground v.1.15,2013-10-29 02:51:00,
2013-10-28 19:56:00,53.1,53.1,29.77,SSE,153,0.0,0.0,100,0.00,,,0.07,Wunderground v.1.15,2013-10-29 02:56:00,
2013-10-28 20:01:00,52.9,52.9,29.78,SSE,153,0.0,0.0,100,0.00,,,0.07,Wunderground v.1.15,2013-10-29 03:01:00,
2013-10-28 20:06:00,52.8,52.8,29.78,SSE,153,0.0,0.0,100,0.00,,,0.07,Wunderground v.1.15,2013-10-29 03:06:00,
2013-10-28 20:11:00,52.8,52.8,29.78,SSE,153,0.0,0.0,100,0.00,,,0.07,Wunderground v.1.15,2013-10-29 03:11:00,
2013-10-28 20:16:00,52.8,52.8,29.78,SSE,153,0.0,0.0,100,0.00,,,0.07,Wunderground v.1.15,2013-10-29 03:16:00,
2013-10-28 20:21:00,52.6,52.6,29.78,SSE,153,0.0,0.0,100,0.00,,,0.07,Wunderground v.1.15,2013-10-29 03:21:00,
2013-10-28 20:26:00,52.5,52.5,29.78,SSE,153,0.0,0.0,100,0.00,,,0.07,Wunderground v.1.15,2013-10-29 03:26:00,
2013-10-28 20:31:00,52.5,52.5,29.78,SSE,153,0.0,0.0,100,0.00,,,0.07,Wunderground v.1.15,2013-10-29 03:31:00,
2013-10-28 20:36:00,52.5,52.5,29.78,SSE,153,0.0,0.0,100,0.00,,,0.07,Wunderground v.1.15,2013-10-29 03:36:00,
2013-10-28 20:41:00,52.3,52.3,29.78,SSE,153,0.0,0.0,100,0.00,,,0.07,Wunderground v.1.15,2013-10-29 03:41:00,
2013-10-28 20:46:00,52.3,52.3,29.78,SSE,153,0.0,0.0,100,0.00,,,0.07,Wunderground v.1.15,2013-10-29 03:46:00,
2013-10-28 20:51:00,52.2,52.2,29.78,SSE,153,0.0,0.0,100,0.00,,,0.07,Wunderground v.1.15,2013-10-29 03:51:00,
2013-10-28 20:56:00,52.2,52.2,29.78,SSE,153,0.0,0.0,100,0.00,,,0.07,Wunderground v.1.15,2013-10-29 03:56:00,
2013-10-28 21:01:00,52.2,52.2,29.79,SSE,153,0.0,0.0,100,0.00,,,0.07,Wunderground v.1.15,2013-10-29 04:01:00,
2013-10-28 21:06:00,52.2,52.2,29.79,SSE,153,0.0,0.0,100,0.00,,,0.07,Wunderground v.1.15,2013-10-29 04:06:00,
2013-10-28 21:11:00,52.2,52.2,29.79,SSE,153,0.0,0.0,100,0.00,,,0.07,Wunderground v.1.15,2013-10-29 04:11:00,
2013-10-28 21:16:00,52.2,52.2,29.80,SSE,153,0.0,0.0,100,0.00,,,0.07,Wunderground v.1.15,2013-10-29 04:16:00,
2013-10-28 21:21:00,52.0,52.0,29.80,SSE,153,0.0,0.0,100,0.00,,,0.07,Wunderground v.1.15,2013-10-29 04:21:00,
2013-10-28 21:26:00,52.0,52.0,29.80,SSE,153,0.0,0.0,100,0.00,,,0.07,Wunderground v.1.15,2013-10-29 04:26:00,
2013-10-28 21:31:00,52.0,52.0,29.80,SSE,153,0.0,0.0,100,0.00,,,0.07,Wunderground v.1.15,2013-10-29 04:31:00,
2013-10-28 21:36:00,52.0,52.0,29.80,SSE,153,0.0,0.0,100,0.00,,,0.07,Wunderground v.1.15,2013-10-29 04:36:00,
2013-10-28 21:41:00,52.0,52.0,29.80,SSE,153,0.0,0.0,100,0.00,,,0.07,Wunderground v.1.15,2013-10-29 04:41:00,
2013-10-28 21:46:00,52.0,52.0,29.80,SSE,153,0.0,0.0,100,0.00,,,0.07,Wunderground v.1.15,2013-10-29 04:46:00,
2013-10-28 21:51:00,52.0,52.0,29.80,SSE,153,0.0,0.0,100,0.00,,,0.07,Wunderground v.1.15,2013-10-29 04:51:00,
2013-10-28 21:56:00,52.0,52.0,29.80,SSE,153,0.0,0.0,100,0.00,,,0.07,Wunderground v.1.15,2013-10-29 04:56:00,
2013-10-28 22:01:00,52.2,52.2,29.81,SSE,153,0.0,0.0,100,0.00,,,0.07,Wunderground v.1.15,2013-10-29 05:01:00,
2013-10-28 22:06:00,52.2,52.2,29.81,SSE,153,0.0,0.0,100,0.00,,,0.07,Wunderground v.1.15,2013-10-29 05:06:00,
2013-10-28 22:11:00,52.2,52.2,29.81,SSE,153,0.0,0.0,100,0.00,,,0.07,Wunderground v.1.15,2013-10-29 05:11:00,
2013-10-28 22:16:00,52.2,52.2,29.81,SSE,153,0.0,0.0,100,0.00,,,0.07,Wunderground v.1.15,2013-10-29 05:16:00,
2013-10-28 22:21:00,52.2,52.2,29.81,SSE,153,0.0,0.0,100,0.00,,,0.07,Wunderground v.1.15,2013-10-29 05:21:00,
2013-10-28 22:26:00,52.2,52.2,29.81,SSE,153,0.0,0.0,100,0.00,,,0.07,Wunderground v.1.15,2013-10-29 05:26:00,
2013-10-28 22:31:00,52.2,52.2,29.82,SSE,153,0.0,0.0,100,0.00,,,0.07,Wunderground v.1.15,2013-10-29 05:31:00,
2013-10-28 22:36:00,52.2,52.2,29.82,SSE,153,0.0,0.0,100,0.00,,,0.07,Wunderground v.1.15,2013-10-29 05:36:00,
2013-10-28 22:41:00,52.0,52.0,29.82,SSE,153,0.0,0.0,100,0.00,,,0.07,Wunderground v.1.15,2013-10-29 05:41:00,
2013-10-28 22:46:00,52.0,52.0,29.83,SSE,153,0.0,0.0,100,0.00,,,0.07,Wunderground v.1.15,2013-10-29 05:46:00,
2013-10-28 22:51:00,52.2,52.2,29.83,SSE,153,0.0,0.0,100,0.00,,,0.07,Wunderground v.1.15,2013-10-29 05:51:00,
2013-10-28 22:56:00,52.2,52.2,29.83,SSE,153,0.0,0.0,100,0.00,,,0.07,Wunderground v.1.15,2013-10-29 05:56:00,
2013-10-28 23:01:00,52.2,52.2,29.83,SSE,153,0.0,0.0,100,0.00,,,0.07,Wunderground v.1.15,2013-10-29 06:01:00,
2013-10-28 23:07:00,52.2,52.2,29.83,SSE,153,0.0,0.0,100,0.00,,,0.07,Wunderground v.1.15,2013-10-29 06:07:00,
2013-10-28 23:12:00,52.2,52.2,29.83,SSE,153,0.0,0.0,100,0.00,,,0.07,Wunderground v.1.15,2013-10-29 06:12:00,
2013-10-28 23:17:00,52.2,52.2,29.83,SSE,153,0.0,0.0,100,0.00,,,0.07,Wunderground v.1.15,2013-10-29 06:17:00,
2013-10-28 23:22:00,52.2,52.2,29.83,SSE,153,0.0,0.0,100,0.00,,,0.07,Wunderground v.1.15,2013-10-29 06:22:00,
2013-10-28 23:27:00,52.0,52.0,29.83,SSE,153,0.0,0.0,100,0.00,,,0.07,Wunderground v.1.15,2013-10-29 06:27:00,
2013-10-28 23:32:00,52.0,52.0,29.83,SSE,153,0.0,0.0,100,0.00,,,0.07,Wunderground v.1.15,2013-10-29 06:32:00,
2013-10-28 23:37:00,52.0,52.0,29.83,SSE,153,0.0,0.0,100,0.00,,,0.07,Wunderground v.1.15,2013-10-29 06:37:00,
2013-10-28 23:42:00,51.9,51.9,29.83,SSE,153,0.0,0.0,100,0.00,,,0.07,Wunderground v.1.15,2013-10-29 06:42:00,
2013-10-28 23:47:00,51.9,51.9,29.83,SSE,153,0.0,0.0,100,0.00,,,0.07,Wunderground v.1.15,2013-10-29 06:47:00,
2013-10-28 23:52:00,51.7,51.7,29.83,SSE,153,0.0,0.0,100,0.00,,,0.07,Wunderground v.1.15,2013-10-29 06:52:00,
2013-10-28 23:57:00,51.6,51.6,29.83,SSE,153,0.0,0.0,100,0.00,,,0.07,Wunderground v.1.15,2013-10-29 06:57:00,